Regional Weather Roundup
Issued by NWS

Home | Current Version | Previous Version | Text Only | Print | Product List | Glossary Off
Versions: 1 2 3 4 5 6 7 8 9 10 11 12 13 14 15 16 17 18 19 20 21 22 23 24 25 26 27 28 29 30 31 32 33 34 35 36 37 38 39 40 41 42 43 44 45 46 47 48 49 50

000
ASUS43 KMPX 281910
RWRMN
WEATHER ROUNDUP FOR MINNESOTA
NATIONAL WEATHER SERVICE TWIN CITIES/CHANHASSEN MN
200 PM CDT TUE MAR 28 2017


NOTE: "FAIR" INDICATES FEW OR NO CLOUDS BELOW 12,000 FEET WITH NO
SIGNIFICANT WEATHER AND/OR OBSTRUCTIONS TO VISIBILITY. N/A MEANS
CURRENT SKY AND/OR WEATHER CONDITIONS ARE NOT AVAILABLE.

MNZ060>063-068>070-282000-
   Twin Cities Metro

CITY           SKY/WX    TMP DP  RH WIND       PRES   REMARKS
TWIN CITIES    MOSUNNY   61  34  36 NE3       30.15S
ST PAUL        SUNNY     59  34  39 CALM      30.15F
CRYSTAL        SUNNY     60  27  28 E3        30.14F
BLAINE         MOSUNNY   63  36  36 N5        30.15S
LAKEVILLE      SUNNY     57  36  44 E6        30.15S
EDEN PRAIRIE   SUNNY     61  33  35 CALM      30.13F
SOUTH ST PAUL  SUNNY     60  35  39 S3        30.14F
LAKE ELMO      FAIR      61  36  39 NE5       30.16S
$$
MNZ001>005-007-008-013>017-022>024-027-028-282000-
   Northwest Minnesota

CITY           SKY/WX    TMP DP  RH WIND       PRES   REMARKS
BEMIDJI        SUNNY     56  31  39 E5        30.16F
HALLOCK        PTSUNNY   45  41  87 NW8       30.22S
ROSEAU         SUNNY     52  36  54 SE7       30.21S
WARROAD        SUNNY     41  32  70 E7        30.23R
THIEF RVR FALL MOSUNNY   53  34  48 NE5       30.20S
CROOKSTON      SUNNY     54  39  58 NE7       30.19F
FOSSTON        SUNNY     55  43  62 CALM      30.18S
DETROIT LAKES  CLOUDY    55  32  41 NW3       30.17S
MOORHEAD       CLOUDY    50  43  76 NW3       30.19S
PARK RAPIDS    SUNNY     60  28  29 CALM      30.14S
MAHNOMEN       FAIR      56  34  43 NW6       30.16F
$$
MNZ006-009>011-018-025>026-282000-
   North Central Minnesota

CITY           SKY/WX    TMP DP  RH WIND       PRES   REMARKS
BAUDETTE       SUNNY     52  30  43 MISG      30.19S
FLAG ISLAND    SUNNY     43  27  52 N10       30.22S
INTL FALLS     SUNNY     51  30  44 NE7       30.18F
WASKISH        MOSUNNY   52  34  50 W5        30.17S
BIG FORK       SUNNY     57  30  35 N3        30.16S
LONGVILLE      SUNNY     57  28  33 CALM      30.15F
GRAND RAPIDS   PTSUNNY   55  30  38 N7        30.17F
CRANE LAKE     SUNNY     52  27  37 N3        30.19F
ORR            SUNNY     55  27  33 CALM      30.15S
COOK           SUNNY     54  28  37 CALM      30.17S
WALKER         FAIR      54  29  39 SE6       30.15F
$$
MNZ012-019>021-037-282000-
   Northeast Minnesota

CITY           SKY/WX    TMP DP  RH WIND       PRES   REMARKS
DULUTH         MOSUNNY   58  30  34 CALM      30.15S
ELY            SUNNY     54  25  32 E6        30.16S
HIBBING        CLOUDY    54  31  41 VRB5      30.15S
EVELETH        MOSUNNY   58  26  29 W7        30.16S
DULUTH HARBOR  MOSUNNY   45  36  70 CALM      30.17F
TWO HARBORS    MOSUNNY   59  37  44 S7        30.14S
SILVER BAY     MOSUNNY   55  30  38 S10       30.14S
GRAND MARAIS     N/A     41  33  73 E7        30.20R
G MARAIS ARPRT PTSUNNY   46  27  46 S5        30.17R
$$
MNZ029>031-032-039>041-046>048-054>057-064-282000-
   West Central Minnesota

CITY           SKY/WX    TMP DP  RH WIND       PRES   REMARKS
FERGUS FALLS   SUNNY     57  43  58 W5        30.19F
WHEATON        MOSUNNY   54  39  58 CALM      30.19F
MORRIS         PTSUNNY   61  37  41 CALM      30.15F
ALEXANDRIA     MOSUNNY   57  34  41 VRB6      30.16S
ELBOW LAKE     FAIR      56  40  56 NW5       30.17S
WADENA         SUNNY     57  36  44 CALM      30.14F
GLENWOOD       MOSUNNY   61  34  36 NW5       30.16S
APPLETON       PTSUNNY   59  36  41 E5        30.16F
BENSON         MOSUNNY   63  28  27 SE3       30.18S
ORTONVILLE     MOSUNNY   55  37  50 CALM      30.17S
MADISON        CLOUDY    61  39  44 NE7       30.16F
WILLMAR        FAIR      61  34  36 E5        30.17S
$$
MNZ033>034-036-042>043-049>051-058-059-282000-
   Central Minnesota

CITY           SKY/WX    TMP DP  RH WIND       PRES   REMARKS
ST CLOUD       MOSUNNY   59  31  34 VRB5      30.16S
SAUK CENTRE    FAIR      58  33  38 CALM      30.16S
PAYNESVILLE    PTSUNNY   57  31  36 CALM      30.17S
AITKIN         SUNNY     63  25  23 N5        30.14S
PINE RIVER     SUNNY     59  34  38 NW5       30.17S
BRAINERD       SUNNY     59  32  36 N6        30.15S
STAPLES        SUNNY     61  28  29 CALM      30.15S
LONG PRAIRIE   FAIR      59  36  41 E5        30.16S
LITTLE FALLS   SUNNY     59  32  36 CALM      30.16S
LITCHFIELD     MOSUNNY   61  30  31 N5        30.16S
BUFFALO        MOSUNNY   59  28  30 N5        30.17S
MAPLE LAKE     MOSUNNY   59  35  40 SE3       30.17S
HUTCHINSON     SUNNY     60  32  34 NE3       30.16S
$$
MNZ037-044-045-052-053-282000-
   East Central Minnesota

CITY           SKY/WX    TMP DP  RH WIND       PRES   REMARKS
PRINCETON      MOSUNNY   61  30  31 N3        30.16S
MORA           SUNNY     57  30  35 S5        30.17S
CAMBRIDGE      SUNNY     61  37  41 E6        30.14S
RUSH CITY      SUNNY     58  28  30 NE3       30.16S
MOOSE LAKE     SUNNY     59  32  36 CALM      30.13F
CLOQUET        MOSUNNY   57  27  30 E3        30.15S
MCGREGOR       SUNNY     59  32  36 NW3       30.15F
$$
MNZ071>073-080-081-089-090-097-098-282000-
   Southwest Minnesota

CITY           SKY/WX    TMP DP  RH WIND       PRES   REMARKS
MONTEVIDEO     MOSUNNY   61  37  41 CALM      30.17F
GRANITE FALLS  MOSUNNY   62  36  38 SE5       30.16F
CANBY          PTSUNNY   60  38  44 CALM      30.16F HAZE
MARSHALL       MOSUNNY   58  36  43 E5        30.15S
REDWOOD FALLS  SUNNY     62  36  37 VRB3      30.14F
OLIVIA         SUNNY     59  34  38 CALM      30.15S
PIPESTONE      CLOUDY    57  30  35 SE6       30.13F
WINDOM         SUNNY     57  36  44 NE12      30.14F
WORTHINGTON    PTSUNNY   56  38  50 E10       30.13F
JACKSON          N/A     57  36  44 E8        30.14F
TRACY          MOSUNNY   60  39  46 E5        30.15S
SLAYTON        MOSUNNY   56  39  52 NE5       30.15S
$$
MNZ065>067-074>077-082>085-091>093-282000-
   South Central Minnesota

CITY           SKY/WX    TMP DP  RH WIND       PRES   REMARKS
MANKATO        SUNNY     58  38  47 E6        30.15F
NEW ULM        SUNNY     61  32  33 E6        30.15S
ST JAMES       SUNNY     59  39  47 CALM      30.16F
FAIRMONT       SUNNY     56  40  55 E12       30.15S
GLENCOE        SUNNY     61  36  38 NE3       30.14F
FARIBAULT      SUNNY     59  39  47 CALM      30.15S
OWATONNA       SUNNY     55  37  50 E5        30.16S
WASECA         SUNNY     55  37  50 E5        30.17S
ALBERT LEA     MOSUNNY   54  37  54 NE7       30.14F
$$
MNZ078>079-086>088-094>096-282000-
   Southeast Minnesota

CITY           SKY/WX    TMP DP  RH WIND       PRES   REMARKS
ROCHESTER      SUNNY     54  41  61 NE8       30.16S
RED WING       SUNNY     57  37  47 CALM      30.14F
STANTON        SUNNY     58  40  49 NE3       30.14S
DODGE CENTER   SUNNY     54  39  58 NE3       30.15F
WINONA         SUNNY     54  41  62 CALM      30.17S
AUSTIN         SUNNY     54  39  58 E6        30.14F
PRESTON        SUNNY     53  37  55 E3        30.15F
$$
ABBREVIATIONS USED IN REMARKS
   TC - TEMPERATURES IN CELSIUS
  WCI - WIND CHILL INDEX
   HX - HEAT INDEX
  VSB - VISIBILITY
$$



USA.gov is the U.S. government's official web portal to all federal, state and local government web resources and services.